This is the latest recevied weather packets stored in our database for station/object LU4EGV-13. If no packets are shown the sender has not sent any weather packets the latest 10 day(s).
| Time | Temp. | Humidity | Pressure | Rain* | Wind** | Luminosity | Snow |
|---|---|---|---|---|---|---|---|
| 1788569126 | 12.22° C | 55% | 1014.1 hPa | 0 mm | - | - | - |
| 1788568533 | 12.22° C | 54% | 1014.2 hPa | 0 mm | - | - | - |
| 1788567913 | 12.78° C | 53% | 1014.2 hPa | 0 mm | - | - | - |
| 1788567307 | 12.78° C | 52% | 1014.1 hPa | 0 mm | - | - | - |
| 1788566701 | 12.78° C | 53% | 1014 hPa | 0 mm | - | - | - |
| 1788566094 | 12.78° C | 53% | 1014 hPa | 0 mm | - | - | - |
| 1788565489 | 12.78° C | 52% | 1013.9 hPa | 0 mm | - | - | - |
| 1788564882 | 12.22° C | 52% | 1013.7 hPa | 0 mm | - | - | - |
| 1788564276 | 12.22° C | 50% | 1013.6 hPa | 0 mm | - | - | - |
| 1788563669 | 12.22° C | 49% | 1013.7 hPa | 0 mm | - | - | - |
| 1788563063 | 12.78° C | 48% | 1013.7 hPa | 0 mm | - | - | - |
| 1788562460 | 13.33° C | 45% | 1013.7 hPa | 0 mm | - | - | - |
| 1788561852 | 13.33° C | 42% | 1013.6 hPa | 0 mm | - | - | - |
| 1788561245 | 14.44° C | 40% | 1013.5 hPa | 0 mm | - | - | - |
| 1788560639 | 15° C | 37% | 1013.6 hPa | 0 mm | - | - | - |
| 1788560032 | 15.56° C | 36% | 1013.4 hPa | 0 mm | - | - | - |
| 1788559426 | 15.56° C | 35% | 1013.6 hPa | 0 mm | - | - | - |
| 1788558820 | 16.11° C | 34% | 1013.5 hPa | 0 mm | - | - | - |
| 1788558214 | 16.11° C | 32% | 1013.6 hPa | 0 mm | - | - | - |
| 1788557609 | 16.67° C | 32% | 1013.7 hPa | 0 mm | - | - | - |
| 1788557002 | 17.22° C | 30% | 1013.5 hPa | 0 mm | - | - | - |
| 1788556397 | 17.78° C | 29% | 1013.6 hPa | 0 mm | - | - | - |
| 1788555789 | 17.78° C | 29% | 1013.6 hPa | 0 mm | - | - | - |
| 1788555194 | 17.78° C | 29% | 1013.5 hPa | 0 mm | - | - | - |
| 1788554576 | 17.78° C | 29% | 1013.4 hPa | 0 mm | - | - | - |
* Rain latest hour (hover to see other rain measurements)
** Current wind speed in m/s (hover to see current wind gust speed)